Location: Capo Nieddu
(40.1500°N, 8.4500°E)
Time: 07:29:11
(UTC+00:00)

Daily predictions for brighter satellites

Satellite Brightness Start Highest point End
(mag) Time Altitude Azimuth Time Altitude Azimuth Time Altitude Azimuth
USA 229 DEB 4.3 17:24:17 10° NNW 17:31:26 49° NE 17:39:01 10° ESE
USA 229 4.3 17:24:23 10° NNW 17:31:33 48° NE 17:39:06 10° ESE
Cosmos 540 Rocket 4.0 17:30:11 10° N 17:34:56 38° ENE 17:39:40 10° SE
Cosmos 2227 Rocket 2.2 17:29:42 10° NNW 17:35:23 81° ENE 17:41:02 10° SSE
KORONAS-FOTON 3.8 17:31:33 10° N 17:35:25 65° E 17:39:13 10° SSE
ARGOS 4.2 17:30:15 10° S 17:35:27 53° W 17:40:42 10° NNW
Cosmos 1733 Rocket 3.6 17:32:06 10° SSE 17:36:10 37° E 17:40:17 10° NNE
Meteor 2-19 Rocket 4.5 17:30:09 10° S 17:36:14 84° E 17:42:25 10° N
CZ-4B R/B 3.6 17:34:54 10° SE 17:39:52 41° ENE 17:44:55 10° N
Cosmos 2084 3.2 17:38:04 10° SW 17:41:55 88° NW 17:45:44 10° NE
Cosmos 1850 Rocket 4.3 17:39:02 10° S 17:43:57 45° ESE 17:48:56 10° NNE
Cosmos 1975 3.5 17:40:25 10° SSW 17:44:24 62° W 17:48:26 10° N
Cosmos 841 Rocket 4.3 17:41:16 10° N 17:45:51 31° ENE 17:50:22 10° SE
Cosmos 1707 3.3 17:42:20 10° NNW 17:46:06 61° W 17:49:50 10° S
Cosmos 1980 Rocket 2.2 17:41:34 10° S 17:47:06 59° ESE 17:52:37 10° NNE
ISS -1.7 17:44:57 10° NNW 17:47:15 17° NNE 17:49:32 10° ENE
Cosmos 1626 2.0 17:43:59 10° N 17:47:38 85° E 17:51:14 10° S
PAYLOAD B 4.2 17:42:38 10° SSE 17:48:07 71° ENE 17:53:36 10° N
Cosmos 2297 Rocket 3.3 17:44:04 10° NW 17:49:30 49° WSW 17:54:55 10° S
HJ-1C 4.2 17:47:36 10° SE 17:50:17 27° ENE 17:52:59 10° NNE
CZ-4 R/B 2.4 17:46:58 10° SE 17:50:28 27° ENE 17:54:01 10° NNE
Okean 2 3.4 17:46:47 10° N 17:50:56 64° E 17:55:01 10° SSE
COSMO-SKYMED 1 3.1 17:47:30 10° N 17:51:49 64° WNW 17:56:06 10° SSW
Cosmos 1763 Rocket 3.5 17:48:50 10° NNW 17:53:56 87° WSW 17:59:02 10° SSE
Cosmos 2369 3.7 17:49:13 10° SSW 17:54:54 75° ESE 18:00:37 10° NNE
OAO 2 Rocket 4.3 17:52:23 10° SW 17:56:40 30° SSE 18:00:16 13° ESE
NOSS 3-1 (A) 4.3 17:51:10 10° NW 17:58:56 90° SW 18:07:59 10° SSE
Cosmos 2278 4.0 17:57:04 10° S 18:02:22 42° ESE 18:07:42 10° NE
Meteor 2-10 4.2 17:58:12 10° S 18:03:46 60° E 18:09:15 10° NNE
SL-16 R/B 3.3 18:01:55 10° SE 18:05:58 20° E 18:10:01 10° NE
USA 186 3.8 18:06:55 13° ENE 18:06:55 13° ENE 18:08:14 10° NE
Cosmos 1437 Rocket 3.9 18:08:45 10° SE 18:11:36 21° E 18:14:26 10° NE
Cosmos 1741 Rocket 3.9 18:07:32 10° SSW 18:12:49 80° ESE 18:18:06 10° NNE
SL-4 R/B 3.9 18:11:44 10° NW 18:15:19 23° NNE 18:18:03 14° ENE
IRIDIUM 114 4.4 18:10:46 10° SSE 18:15:49 53° E 18:20:53 10° NNE
ARGOS Delta rocket 4.2 18:12:19 10° N 18:17:37 80° WNW 18:22:37 10° SSW
Okean O Rocket 1.5 18:15:21 10° SSE 18:19:39 68° ENE 18:24:00 10° N
Cosmos 1908 Rocket 4.0 18:16:27 10° SSE 18:20:26 38° E 18:24:27 10° NNE
Timation 2 Rocket 4.2 18:14:16 10° NNW 18:20:33 51° ENE 18:25:24 16° SE
BREEZE-M DEB (TANK) 4.2 18:16:28 10° WSW 18:20:46 72° NNW 18:38:22 10° ENE
Nadezhda 4 Rocket 4.0 18:16:19 10° S 18:22:29 59° E 18:28:41 10° NNE
Cosmos 2292 Rocket 4.4 18:18:57 10° SSE 18:24:37 40° E 18:29:00 10° NNE
IRIDIUM 103 4.3 18:19:47 10° S 18:24:56 66° E 18:30:07 10° N
Meteor 2-21 4.3 18:19:16 10° S 18:25:15 74° E 18:31:18 10° NNE
Cosmos 1242 Rocket 4.0 18:22:25 10° SSW 18:25:47 39° WNW 18:29:10 10° N
Cosmos 2219 4.3 18:21:50 10° NW 18:27:19 46° WSW 18:32:46 10° S
Cosmos 1809 Rocket 4.5 18:21:31 10° S 18:27:36 85° W 18:33:43 10° N
CZ-2C R/B 2.7 18:25:33 10° WSW 18:28:00 20° SSW 18:29:22 16° SSE
Landsat 5 4.0 18:24:16 10° NNE 18:28:30 40° E 18:32:40 10° SSE
BREEZE M DEB (TANK) 3.0 18:21:23 10° SW 18:29:51 54° SSE 18:31:26 30° E
Cosmos 1805 4.4 18:28:47 10° SSW 18:32:31 46° W 18:36:16 10° N
SL-14 R/B 3.3 18:29:10 10° N 18:33:08 82° W 18:37:07 10° S
YAOGAN 1 2.9 18:29:14 10° S 18:33:31 68° W 18:37:49 10° NNW
Cosmos 2263 Rocket 2.2 18:29:15 10° NNW 18:34:54 61° ENE 18:38:39 21° SE
COBE Rocket 4.4 18:30:55 10° S 18:35:47 60° W 18:40:33 10° NNW
Meteor 1-15 Rocket 4.2 18:30:27 10° S 18:35:53 55° E 18:41:18 10° NNE
Cosmos 1726 2.3 18:32:33 10° SSW 18:36:09 70° W 18:39:48 10° N
OBJECT-B 2.7 18:38:57 14° N 18:38:57 14° N 18:39:26 10° N
Cosmos 1674 Rocket 3.5 18:33:14 10° N 18:37:39 89° ENE 18:42:05 10° S
Meteor 2-5 Rocket 4.2 18:34:42 10° N 18:39:49 37° ENE 18:41:16 31° ESE
IRIDIUM 106 4.3 18:38:00 10° S 18:43:12 84° W 18:48:27 10° N
USA 267 4.0 18:37:03 10° SSE 18:43:21 50° SW 18:49:41 10° NW
Cosmos 2082 4.2 18:40:38 10° NNW 18:46:18 61° WSW 18:51:55 10° S
Cosmos 1766 3.4 18:42:31 10° SSW 18:46:24 71° W 18:50:20 10° N
IRS-1C Rocket 4.5 18:46:16 36° ESE 18:47:31 42° ENE 18:52:26 10° N
CSL-04 Debris 4.1 18:50:17 28° SE 18:53:05 62° ENE 18:58:25 10° N
Landsat 7 4.4 19:00:02 39° NE 19:00:02 39° NE 19:03:53 10° N
Cosmos 1092 Rocket 3.9 18:53:16 10° S 18:59:30 64° E 19:05:43 10° NNE
IGS 5A 3.5 18:59:48 58° NE 18:59:48 58° NE 19:03:38 10° N
Cosmos 1975 Rocket 4.5 18:58:34 10° N 19:00:50 25° NNE 19:00:50 25° NNE
Resurs 01 Rocket 3.7 19:05:25 15° NNE 19:05:25 15° NNE 19:06:30 10° NNE
Cosmos 968 Rocket 3.4 19:02:27 10° SSW 19:07:42 86° ESE 19:12:59 10° NNE
Hubble Space Telescope 3.3 19:11:35 10° SW 19:12:34 11° SSW 19:12:34 11° SSW
Cosmos 2322 Rocket 3.1 19:16:30 10° S 19:27:51 10° NNE 19:19:41 34° S
CSL-04 Rocket 3.6 19:21:40 49° S 19:23:10 80° WSW 19:28:34 10° NNW
Okean-O 2.7 19:24:10 73° NW 19:24:10 73° NW 19:28:16 10° NNW
ISS -1.7 19:21:05 10° NW 19:22:45 26° NW 19:22:45 26° NW
Resurs 1-3 4.2 19:26:16 48° N 19:26:16 48° N 19:29:29 10° N
CZ-4 R/B 3.7 19:21:58 10° SSW 19:25:20 24° W 19:28:44 10° NW
SJ-6B 4.1 19:30:24 37° NW 19:30:24 37° NW 19:33:00 10° NNW
Cosmos 1570 Rocket 4.0 19:29:50 10° NNW 19:34:49 78° NW 19:34:49 78° NW
SL-16 R/B 2.8 19:44:04 10° SW 19:49:35 54° WNW 19:55:09 10° NNE
Meteor 1-24 Rocket 4.0 19:46:22 10° NNW 19:51:25 57° W 19:51:25 57° W
SL-4 R/B 3.9 19:50:56 10° NW 19:53:27 31° NW 19:53:27 31° NW
Cosmos 1844 Rocket 3.8 19:55:50 10° NNW 19:59:17 37° N 19:59:17 37° N
Cosmos 1553 Rocket 4.5 20:04:51 10° N 20:09:43 55° NNW 20:09:43 55° NNW
Cosmos 2263 Rocket 4.5 20:14:32 10° WNW 20:18:14 18° W 20:20:23 15° SW
